User: anonymous   Login
Location: Unspecified
(0.0000°N, 0.0000°E)
Time: 19:24:49
(UTC+00:00)
Language:

PicSat - Orbit

View from above orbital plane
View from above orbital plane
View from above satellite
View from above satellite

Ground track
Ground track

The orbit data is extracted from the following two-line orbital elements,

1 43131U 18004W   19343.17536626  .00001470  00000-0  62456-4 0  9990
2 43131  97.4720  50.9144 0009456  14.3130 345.8374 15.24627238105945
Epoch (UTC): 09 December 2019 04:12:31
Eccentricity: 0.0009456
inclination: 97.4720°
perigee height: 485 km
apogee height: 498 km
right ascension of ascending node: 50.9144°
argument of perigee: 14.3130°
revolutions per day: 15.24627238
mean anomaly at epoch: 345.8374°
orbit number at epoch: 10594

The dashed part of the orbit path shows where the satellite is in the earth's shadow,  

DLR